www.pogodaiklimat.ru

Погода и климат >> Архив погоды >> Норвегия >> Рюгге


ПОГОДА в Рюгге

  • Прогноз погоды в Рюгге
  • Монитор погоды в Рюгге

АРХИВ ПОГОДЫ в Рюгге

Время (UTC), дата Ветер
(напр.,м/с)
 
Видим.   Явления Облачность Т
(С)
Тd
(С)
f
(%)
Тe
(С)
Тes
(С)
Комфортность P
(гПа)
Po
(гПа)
Тmin
(С)
Tmax
(С)
R
(мм)
R24
(мм)
S
(см)
01 13.09 ЮЗ 2
{6}
50 км 4/0
[]
+11.8 +7.9 77 +11 +11 1013.5 1007.1
02 13.09 ЮЗ 3
{7}
50 км 5/0
[]
+11.7 +7.4 75 +10 +10 1013.7 1007.3
03 13.09 ЮЗ 3
{7}
50 км ясно +10.7 +7.0 78 +9 +9 1013.7 1007.3
04 13.09 СЗ 2
{5}
50 км ясно +10.2 +5.6 73 +9 +9 1014.5 1008.1
05 13.09 З 3
{3}
50 км ясно +9.9 +5.1 72 +8 +8 1015.6 1009.1
06 13.09 З 3
{7}
50 км ясно +11.6 +5.5 66 +10 +10 1016.5 1010.1 +9.4 +15.1
07 13.09 З 5
{8}
40 км ясно +12.9 +4.6 57 +11 +12 1017.3 1010.9
08 13.09 З 4
{7}
50 км ясно +13.6 +4.2 53 +12 +14 1018.0 1011.6
09 13.09 З 6
{9}
35 км ясно +14.6 +4.0 49 +13 +15 1018.9 1012.6
10 13.09 З 4 45 км ясно +15.7 +4.4 47 +15 +19 1019.4 1013.1
11 13.09 З 7 35 км ясно +16.6 +3.3 41 +15 +17 1019.7 1013.5
12 13.09 З 4
{10}
35 км ясно +17.3 +4.3 42 +17 +21 1020.1 1013.8
13 13.09 З 6 35 км ясно +17.6 +3.1 38 +17 +19 1020.3 1014.0
14 13.09 З 6 45 км 3/0
[]
+17.6 +2.4 36 +17 +18 1020.5 1014.2
15 13.09 З 5 40 км 3/0 2000 м
[]
+17.5 +2.3 36 +17 +18 1020.8 1014.5
16 13.09 З 6 40 км ясно +16.4 +2.4 39 +15 +16 1021.0 1014.7
17 13.09 З 5 50 км ясно +15.3 +2.5 42 +14 +14 1021.3 1015.0
18 13.09 З 6
{12}
50 км ясно +14.2 +3.1 47 +12 +12 1022.0 1015.6 +18.0
19 13.09 З 5 50 км ясно +12.8 +3.7 54 +11 +11 1022.6 1016.3
20 13.09 З 3 50 км ясно +11.8 +3.8 58 +10 +10 1023.3 1016.9
21 13.09 ЮЗ 2 50 км ясно +11.1 +3.9 61 +10 +10 1024.0 1017.5
22 13.09 З 3 50 км ясно +10.2 +4.1 66 +8 +8 1024.2 1017.7
23 13.09 ЮЗ 3 50 км ясно +10.2 +3.5 63 +8 +8 1024.4 1017.9 1
00 14.09 ЮЗ 3
{9}
50 км ясно +9.9 +3.4 64 +8 +8 1024.9 1018.4 1
01 14.09 З 2
{5}
50 км ясно +9.3 +3.3 66 +8 +8 1025.0 1018.6
02 14.09 ЮЗ 2
{4}
50 км ясно +8.8 +3.4 69 +7 +7 1025.5 1019.0
03 14.09 ЮЗ 3 45 км ясно +8.9 +3.5 69 +7 +7 1025.0 1018.5
04 14.09 Ю 1
{3}
50 км 9/0
[]
+8.1 +4.0 75 +7 +7 1024.9 1018.4
05 14.09 З 3
{5}
50 км ясно +9.6 +4.4 70 +7 +7 1024.9 1018.4
06 14.09 З 3
{5}
н/о н/о +9.6 +4.8 72 +7 +7 1025.3 1018.8 +6.9 1
07 14.09 ЮЗ 3 45 км 10/0
[]
+10.0 +4.6 69 +8 +9 1025.2 1018.7
08 14.09 ЮЗ 3
{5}
40 км 9/0
[]
+11.1 +4.6 64 +9 +11 1025.2 1018.7
09 14.09 З 5
{7}
40 км 5/0
[]
+11.7 +4.7 62 +9 +11 1025.0 1018.6
10 14.09 ЮЗ 4
{8}
40 км 4/0
[]
+12.6 +5.1 60 +11 +14 1024.6 1018.2
11 14.09 ЮЗ 4
{9}
40 км 4/0
[]
+13.4 +5.3 58 +12 +15 1024.0 1017.6
12 14.09 ЮЗ 6
{9}
35 км 1/0
[]
+13.4 +6.7 64 +11 +14 1022.9 1016.5
13 14.09 ЮЗ 4
{9}
35 км 6/0
[]
+13.0 +7.9 71 +11 +14 1022.2 1015.8
14 14.09 Ю 3
{6}
35 км 3/0
[]
+13.3 +8.8 74 +12 +15 1021.1 1014.7
15 14.09 ЮЗ 4
{7}
24 км слаб. дождь ясно +13.1 +9.0 76 +11 +13 1019.6 1013.2
16 14.09 Ю 5
{7}
45 км в посл. час дождь 8/0
[]
+13.6 +8.5 71 +12 +12 1017.7 1011.3 0.5
17 14.09 ЮЗ 6
{11}
45 км 10/0
[]
+13.8 +7.1 64 +12 +12 1016.6 1010.3
18 14.09 ЮЗ 8
{15}
45 км 10/10 1000 м
[]
+13.7 +6.3 61 +11 +11 1015.6 1009.3 +9.5 +14.0 0.5
19 14.09 ЮЗ 9
{15}
35 км 10/10 1000 м
[]
+13.5 +6.8 64 +11 +11 1013.2 1006.9
20 14.09 ЮЗ 9
{16}
35 км 10/10 1500 м
[]
+13.1 +7.6 69 +10 +10 1012.2 1005.8
21 14.09 ЮЗ 7
{15}
30 км 10/10 600 м
[]
+13.3 +7.8 69 +11 +11 1010.6 1004.3
22 14.09 ЮЗ 9
{15}
27 км 10/10 600 м
[]
+13.8 +9.9 77 +11 +11 1008.2 1002.0
23 14.09 ЮЗ 8
{15}
21 км 10/0
[]
+13.8 +10.4 80 +11 +11 1006.2 999.9
00 15.09 ЮЗ 6
{16}
20 км слаб. ливневой дождь 5/0
[]
+13.4 +10.9 85 +11 +11 1004.8 998.5
01 15.09 ЮЗ 7
{10}
30 км в посл. час дождь 8/0
[]
+13.2 +10.7 85 +11 +11 1003.9 997.6
02 15.09 ЮЗ 5
{9}
50 км слаб. ливневой дождь 9/0 2000 м
[]
+12.8 +10.7 87 +11 +11 1002.4 996.2
03 15.09 ЮЗ 6
{9}
50 км 10/0
[]
+12.8 +8.7 76 +10 +10 1001.4 995.2
04 15.09 ЮЗ 5
{11}
50 км 5/0
[]
+12.4 +8.7 78 +10 +10 1000.5 994.3
05 15.09 ЮЗ 5
{13}
50 км ясно +12.1 +7.4 73 +10 +10 1000.6 994.3
06 15.09 ЮЗ 5
{13}
45 км ясно +11.7 +6.2 69 +9 +10 1000.4 994.1 +11.6 +14.0
07 15.09 ЮЗ 7
{11}
35 км 1/0
[]
+12.3 +5.9 65 +10 +10 999.4 993.1
08 15.09 ЮЗ 7
{13}
30 км ясно +13.1 +4.0 54 +11 +12 999.1 992.9
09 15.09 З 6
{11}
35 км ясно +14.1 +3.0 47 +12 +14 999.5 993.3
10 15.09 З 8
{18}
29 км ясно +15.1 +2.3 42 +13 +14 999.1 992.9
11 15.09 З 8
{15}
35 км ясно +15.8 +1.9 39 +14 +15 999.1 992.9
12 15.09 ЮЗ 8
{18}
40 км ясно +15.9 +2.0 39 +14 +15 998.5 992.3
13 15.09 З 9
{16}
40 км ясно +16.8 +2.4 38 +15 +16 998.0 991.9
14 15.09 З 8
{13}
40 км 1/0
[]
+17.1 +3.4 40 +16 +17 997.8 991.7
15 15.09 З 7
{12}
45 км ясно +16.9 +3.6 41 +16 +16 997.4 991.2
16 15.09 З 9
{17}
50 км 1/0
[]
+16.6 +3.0 40 +15 +15 997.9 991.7
17 15.09 З 8
{16}
50 км ясно +15.5 +3.3 44 +14 +14 998.0 991.8
18 15.09 З 7
{17}
50 км ясно +14.4 +3.3 47 +13 +13 999.0 992.8 +11.7 +17.4
19 15.09 З 6
{11}
50 км ясно +13.6 +3.1 49 +12 +12 999.6 993.3
20 15.09 З 5
{9}
50 км ясно +13.2 +3.0 50 +11 +11 1000.5 994.3
21 15.09 З 5
{9}
50 км ясно +12.8 +2.7 50 +11 +11 1001.5 995.2
22 15.09 З 5
{7}
50 км ясно +11.5 +2.8 55 +9 +9 1002.5 996.2
23 15.09 З 8
{13}
50 км ясно +13.0 -0.2 40 +11 +11 1003.4 997.1
00 16.09 З 7
{13}
50 км ясно +12.2 -1.0 40 +10 +10 1004.2 997.9
01 16.09 З 7
{11}
50 км ясно +11.3 -1.8 40 +9 +9 1004.8 998.5
02 16.09 З 3
{15}
50 км ясно +9.9 -0.8 47 +8 +8 1005.7 999.4
03 16.09 ЮЗ 2
{5}
50 км ясно +9.8 -1.2 46 +9 +9 1006.2 999.8
04 16.09 ЮЗ 4
{6}
50 км ясно +9.7 -1.0 47 +7 +7 1006.4 1000.0
05 16.09 З 4
{6}
50 км ясно +8.4 +0.9 59 +6 +6 1006.5 1000.2
06 16.09 З 4
{15}
45 км ясно +9.5 +1.4 57 +7 +7 1006.5 1000.2 +8.3 +14.5
07 16.09 З 6
{9}
40 км 8/0
[]
+10.7 +0.7 50 +8 +8 1006.9 1000.5
08 16.09 З 7
{10}
40 км ясно +12.1 -0.1 43 +10 +10 1007.2 1000.9
09 16.09 З 6
{13}
35 км ясно +13.2 +0.6 42 +11 +13 1007.3 1001.1
10 16.09 З 7
{12}
30 км ясно +14.0 -0.8 36 +12 +14 1007.4 1001.2
11 16.09 СЗ 7
{11}
40 км ясно +14.8 -0.9 34 +13 +15 1007.3 1001.1
12 16.09 СЗ 5
{13}
н/о ясно +15.6 -0.6 33 +15 +18 1007.1 1000.9
13 16.09 СЗ 7
{11}
40 км ясно +15.8 -1.7 30 +14 +16 1007.0 1000.7
14 16.09 СЗ 6
{10}
35 км ясно +16.2 -0.5 32 +15 +17 1006.9 1000.6
15 16.09 СЗ 6
{11}
35 км ясно +15.7 -0.9 32 +15 +15 1006.7 1000.4
16 16.09 СЗ 4
{8}
45 км ясно +15.2 +0.3 36 +14 +15 1006.4 1000.2
17 16.09 З 3
{5}
45 км ясно +13.7 +2.0 45 +13 +13 1006.1 999.8
18 16.09 З 5
{11}
50 км ясно +12.7 +3.1 52 +11 +11 1006.0 999.7 +9.5 +16.3 3
19 16.09 З 4
{7}
50 км 3/0
[]
+11.6 +2.9 55 +10 +10 1005.7 999.4
20 16.09 З 6
{9}
50 км ясно +11.3 +2.9 56 +9 +9 1005.1 998.8
21 16.09 З 4
{7}
50 км ясно +10.4 +3.7 63 +8 +8 1004.6 998.3
22 16.09 З 4
{7}
50 км 6/0
[]
+10.0 +3.3 63 +8 +8 1004.3 998.0
23 16.09 З 4
{6}
50 км 10/0
[]
+9.6 +3.4 65 +7 +7 1003.9 997.5
00 17.09 З 4
{9}
50 км 3/0
[]
+9.1 +2.9 65 +6 +6 1003.4 997.0
01 17.09 С 1
{5}
50 км 8/0
[]
+7.8 +2.7 70 +7 +7 1002.8 996.4
02 17.09 З 1
{4}
50 км 1/0
[]
+8.0 +2.7 69 +7 +7 1002.3 995.9
03 17.09 З 3
{5}
50 км 9/0
[]
+8.2 +1.8 64 +6 +6 1001.9 995.5
04 17.09 СЗ 4
{7}
50 км 8/0
[]
+9.0 +0.7 56 +6 +6 1001.7 995.4
05 17.09 СЗ 4
{8}
50 км 5/0
[]
+8.2 +0.2 57 +5 +5 1001.6 995.2
06 17.09 СЗ 3
{8}
50 км ясно +7.7 +0.2 59 +5 +6 1001.7 995.3 +7.0 +12.6
07 17.09 СЗ 5
{8}
45 км ясно +8.6 -0.1 54 +6 +6 1001.9 995.5
08 17.09 С 5
{8}
50 км 10/0 2000 м
[]
+9.1 +0.3 54 +6 +7 1002.4 996.1
09 17.09 С 7
{11}
35 км 9/0 2000 м
[]
+9.6 +0.3 52 +6 +7 1003.0 996.7
10 17.09 С 7
{11}
40 км ясно +11.5 +0.3 46 +9 +10 1003.5 997.2
11 17.09 С 6
{11}
35 км 5/0
[]
+12.4 +0.5 44 +10 +12 1004.1 997.8
12 17.09 С 7
{12}
45 км 8/8 1500 м
[]
+12.8 +0.6 43 +10 +11 1004.8 998.6
13 17.09 С 7
{12}
45 км 3/0
[]
+12.4 -0.8 40 +10 +11 1005.5 999.2
14 17.09 С 5
{12}
45 км 4/0
[]
+13.5 -0.5 38 +12 +13 1006.1 999.8
15 17.09 С 7
{10}
45 км 1/0
[]
+13.6 -1.1 36 +12 +12 1006.7 1000.5
16 17.09 С 4
{9}
45 км ясно +13.4 -0.9 37 +12 +13 1007.6 1001.3
17 17.09 СЗ 3
{7}
50 км ясно +12.3 -0.5 41 +11 +11 1008.1 1001.8
18 17.09 СЗ 2
{12}
50 км ясно +10.4 -0.1 48 +9 +9 1008.8 1002.4 +7.7 +14.3
19 17.09 СЗ 6
{9}
50 км ясно +11.5 -0.3 44 +9 +9 1009.6 1003.3 0.8
20 17.09 С 3
{9}
50 км ясно +9.7 +0.6 53 +8 +8 1010.8 1004.5
21 17.09 СЗ 3
{5}
50 км ясно +9.1 +1.3 58 +7 +7 1011.4 1005.0
22 17.09 СЗ 4
{6}
50 км ясно +9.3 +1.5 58 +7 +7 1012.0 1005.5
23 17.09 СЗ 3
{6}
50 км ясно +8.7 +2.1 63 +6 +6 1012.6 1006.2
00 18.09 СЗ 2
{9}
50 км ясно +8.9 +2.0 62 +7 +7 1013.0 1006.6 0.8
01 18.09 СЗ 1
{4}
50 км ясно +7.9 +2.0 66 +7 +7 1013.5 1007.0
02 18.09 СЗ 3
{4}
50 км ясно +7.3 +2.2 70 +5 +5 1013.7 1007.3
03 18.09 СЗ 2
{4}
50 км ясно +6.8 +2.7 75 +5 +5 1014.2 1007.8
04 18.09 штиль 0
{3}
50 км ясно +6.8 +2.1 72 +6 +6 1014.5 1008.1
05 18.09 СВ 1
{3}
50 км ясно +4.3 +1.0 79 +3 +3 1015.1 1008.6
06 18.09 СЗ 2
{4}
50 км ясно +7.6 +2.3 69 +6 +6 1015.6 1009.2 +3.9 +11.7 0.8
07 18.09 СЗ 4
{6}
50 км ясно +10.0 +1.7 56 +8 +8 1016.1 1009.7
08 18.09 С 4
{7}
50 км ясно +11.2 +0.9 49 +9 +11 1016.8 1010.4
09 18.09 С 6
{8}
40 км 1/0
[]
+12.5 +0.6 44 +10 +12 1017.1 1010.7
10 18.09 С 6
{9}
40 км ясно +13.2 +0.6 42 +11 +13 1017.3 1010.9
11 18.09
{8}
45 км ясно +14.0 +1.0 41 1017.5 1011.2
12 18.09 СЗ 5
{9}
40 км ясно +14.6 +0.8 39 +13 +16 1017.7 1011.3
13 18.09 С 5
{8}
40 км ясно +15.0 +0.1 36 +14 +16 1017.7 1011.4
14 18.09 СЗ 6
{8}
35 км ясно +15.0 -0.7 34 +14 +15 1018.0 1011.7
15 18.09 СЗ 5
{7}
35 км ясно +15.1 +1.3 39 +14 +15 1018.0 1011.7
16 18.09 С 3
{8}
50 км ясно +14.5 -0.7 35 +14 +14 1018.3 1012.0
17 18.09 СЗ 3
{4}
50 км ясно +13.1 +0.8 43 +12 +12 1018.6 1012.3
18 18.09 СЗ 3
{8}
50 км ясно +11.0 +1.6 52 +9 +9 1019.2 1012.8 +7.6 +15.5
19 18.09 С 3
{4}
50 км ясно +9.8 +2.9 62 +8 +8 1019.9 1013.5 0.6
20 18.09 С 2
{4}
50 км ясно +9.5 +1.2 56 +8 +8 1020.6 1014.1
21 18.09 С 3
{4}
50 км ясно +8.8 +1.5 60 +7 +7 1021.4 1014.9
22 18.09 С 3
{7}
50 км ясно +8.8 +1.0 58 +7 +7 1021.8 1015.4
23 18.09 С 4
{6}
50 км ясно +8.5 +1.0 59 +6 +6 1022.4 1015.9
00 19.09 В 2
{7}
50 км ясно +5.5 +0.3 69 +3 +3 1023.2 1016.6 0.6
01 19.09 СВ 2
{3}
50 км ясно +4.8 +0.6 74 +2 +2 1023.6 1017.0
02 19.09 С 2
{3}
50 км ясно +5.1 +0.5 72 +3 +3 1024.0 1017.5
03 19.09 штиль 0
{2}
50 км ясно +4.6 +0.8 76 +4 +4 1024.2 1017.6
04 19.09
{2}
50 км ясно +3.7 +0.8 81 1024.6 1018.0
05 19.09 штиль 0
{2}
50 км ясно +3.3 0.0 79 +2 +2 1024.9 1018.3
06 19.09 З 1
{3}
45 км ясно +3.3 +0.4 81 +2 +2 1025.3 1018.7 +1.8 +11.0 0.6
07 19.09 штиль 0
{1}
35 км ясно +9.0 +4.4 73 +8 +10 1025.6 1019.1
08 19.09 СЗ 3
{5}
45 км ясно +10.3 +1.2 53 +9 +11 1026.0 1019.6
09 19.09 СЗ 3
{5}
45 км ясно +10.5 +0.6 50 +9 +12 1026.5 1020.1
10 19.09 СЗ 3
{5}
40 км 1/0
[]
+11.3 -0.2 45 +10 +14 1026.6 1020.1
11 19.09 СЗ 2
{5}
35 км ясно +12.2 0.0 43 +12 +17 1026.3 1019.9
12 19.09 СЗ 3
{5}
50 км ясно +11.7 +0.8 47 +10 +15 1026.3 1019.8
13 19.09 З 3
{5}
35 км ясно +12.5 +0.6 44 +11 +15 1026.0 1019.6
14 19.09 З 2
{5}
45 км ясно +12.0 -0.2 43 +11 +15 1025.7 1019.3
15 19.09 З 2
{4}
45 км ясно +12.3 +0.4 44 +12 +13 1025.4 1019.0
16 19.09 ЮЗ 2
{4}
50 км ясно +11.1 +1.6 52 +10 +11 1025.3 1018.8
17 19.09 Ю 1
{2}
50 км 6/0
[]
+10.2 +2.1 57 +10 +10 1025.1 1018.7
18 19.09 ЮВ 1
{5}
50 км 4/0
[]
+8.3 +3.2 70 +8 +8 1025.0 1018.5 +3.4 +13.1
19 19.09 Ю 2
{2}
50 км ясно +9.4 +3.0 64 +8 +8 1024.8 1018.3
20 19.09 ЮЗ 2
{2}
50 км 5/0
[]
+9.2 +3.4 67 +8 +8 1024.5 1018.0
21 19.09 ЮЗ 2
{3}
50 км 10/0
[]
+9.4 +3.2 65 +8 +8 1023.8 1017.3
22 19.09 ЮЗ 2
{3}
50 км 10/0
[]
+9.3 +4.1 70 +8 +8 1023.7 1017.2
23 19.09 ЮЗ 1
{3}
50 км 10/0
[]
+8.8 +4.4 74 +8 +8 1023.7 1017.2
00 20.09 Ю 2
{3}
50 км 10/10 1500 м
[]
+8.9 +4.9 76 +7 +7 1023.0 1016.5
01 20.09 В 1
{2}
50 км 10/0 2000 м
[]
+7.8 +5.4 85 +7 +7 1022.6 1016.1

 

Местоположение метеостанции Рюгге (Норвегия): широта 59.38 долгота 10.80 высота над уровнем моря 40 м.

В архиве по умолчанию представлена погода в Рюгге за последнюю неделю. Архивные данные за месяц целиком и за предыдущие месяцы, начиная с января 2011 года, Вы можете получить, выбрав интересующий диапазон дат из раскрывающегося списка и нажав кнопку "Ввод!".


*Определитесь, кто Вы:
робот инопланетянин человек

Внимание! Время в таблицах - всемирное. Для получения местного времени необходимо прибавить поправку, которая равна 1 ч.

Смотрите также архив погоды в соседних городах и на ближайших метеорологических станциях:

Погода на Гуллхолмене (Норвегия) (14 км)
Погода в Сарпсборге (Норвегия) (21 км)
Погода на Маяке Stromtangen (Норвегия) (26 км)
Погода в Мелсоме (Норвегия) (31 км)
Погода в Асе (Норвегия) (31 км)
Погода на Маяке Ferder (Норвегия) (42 км)
Погода в Санде-Галлеберге (Норвегия) (42 км)
Погода в Коннеруде (Норвегия) (52 км)
Погода в Нордкостере (Швеция) (55 км)
Погода в Драммен Берског (Норвегия) (56 км)

Пояснения к столбцам:

Ветер - указаны скорость ветра в м/с - средняя за 10 мин, порывы в срок и между сроками (в фигурных скобках) и направление, откуда дует ветер: С - северный, СВ - северо-восточный, В - восточный, ЮВ - юго-восточный, Ю - южный, ЮЗ - юго-западный, З - западный, СЗ - северо-западный.
Видимость - горизонтальная дальность видимости в метрах или километрах. При видимости от 1 до 10 км при отсутствии осадков обычно наблюдается дымка, при ухудшении видимости до 1 км и менее - туман. В сухую погоду видимость может ухудшаться дымом, пылью или мглою.
Явления - указаны атмосферные явления, наблюдавшиеся в срок или в последний час перед сроком; фигурными скобками обозначены явления, наблюдавшиеся между сроками (за 1-3 часа до срока); квадратными скобками обозначены град или гололедные отложения с указанием их диаметра в мм.
Облачность - указаны через наклонную черту общая и нижняя облачность в баллах и высота нижней границы облаков в метрах; квадратными скобками обозначены формы облаков: Ci - перистые, Cs - перисто-слоистые, Cc - перисто-кучевые, Ac - высококучевые, As - высокослоистые, Sc - слоисто-кучевые, Ns - слоисто-дождевые, Cu - кучевые, Cb - кучево-дождевые. Подробнее классификацию облаков см. в Атласе облаков (PDF).
T - Температура воздуха - температура, измеренная на высоте 2 м над землей.
Td - Температура точки росы - температура, при понижении до которой содержащийся в воздухе водяной пар достигнет насыщения.
f - Относительная влажность воздуха - влажноcть воздуха, измеренная на высоте 2 м над землей.
Te - Эффективная температура - температура, которую ощущает одетый по сезону человек в тени. Характеристика душности погоды. При расчете учитывается влияние влажности воздуха и скорости ветра на теплоощущения человека.
Tes - Эффективная температура на солнце - температура, которую ощущает человек, с поправкой на солнечный нагрев. Характеристика знойности погоды. Зависит от высоты солнца над горизонтом, облачности и скорости ветра. Ночью, в пасмурную погоду, а также при ветре 12 м/с и более поправка равна нулю.
P - Атмосферное давление - приведенное к уровню моря атмосферное давление.
Po - Атмосферное давление - измеренное на уровне метеостанции атмосферное давление.
Tmin - Минимальная температура - минимум температуры воздуха на высоте 2 м над землей.
Tmax - Максимальная температура - максимум температуры воздуха на высоте 2 м над землей.
R - Количество осадков - Количество выпавших осадков за период времени, мм. При наведении курсора мыши на число - период времени, за который выпало указанное количество осадков.
R24 - Количество осадков - Количество выпавших осадков за 24 часа, мм.
S - Снежный покров - Высота снежного покрова, см. При наведении курсора мыши на число - состояние снежного покрова и степень покрытия местности в баллах.